Weather in Agapovka

Russia / Chelyabinsk Oblast     53°18′10″N   59°08′26″E
temp.,
°C
wind,
m/s
gust,
m/s
humid.,
%
clouds,
%
prec.,
mm/h
press.,
hPa
HPBL,
m
14 may, fri
fri1423:00+19w22355 0.0 102613
02:00+17w22398 0.0 102611
05:00+16wnw11445 0.0 102711
08:00+20w12391 0.0 1027162
11:00+26wsw33260 0.0 1027984
14:00+28sw34220 0.0 10252544
17:00+28wsw44210 0.0 10252607
20:00+24sw34310 0.0 102553
15 may, sat
sat1523:00+20w45400 0.0 102565
02:00+18wnw33480 0.0 102539
05:00+17nw22480 0.0 102511
08:00+20w22401 0.0 1026185
11:00+25wsw33280 0.0 10251021
14:00+28w32213 0.0 10241960
17:00+29wnw23225 0.0 10232615
20:00+26ssw33327 0.0 102230
16 may, sun
sun1623:00+19ene344989 1.0 102363
02:00+18nw22540 0.0 102320
05:00+17nw116067 0.1 102411
08:00+22wnw11455 0.1 1024160
11:00+27wsw113112 0.1 1023944
14:00+29wsw22235 0.0 10222832
17:00+30wsw232132 0.0 10213331
20:00+23nw71044100 0.0 1022326
17 may, mon
mon1723:00+20nnw22472 0.1 102218
02:00+19w11535 0.0 102211
05:00+17w11535 0.0 102211
08:00+22w23423 0.0 1023206
11:00+27w22280 0.0 1022948
14:00+29w23195 0.0 10203485
17:00+30wsw331971 0.0 10193533
20:00+22wnw8134855 0.0 1020292
18 may, tue
tue1823:00+19w22495 0.1 102021
02:00+18nw1158100 0.0 102011
05:00+16w226458 0.1 102017
08:00+21nw235025 0.0 1019230
11:00+26n23312 0.0 10191192
14:00+29ne222425 0.0 10173082
17:00+29ese122326 0.0 10163124
20:00+23ne6104184 0.0 1017282